User: anonymous   Login
Location: Dompnac
(44.5644°N, 4.1026°E)
Time: 12:37:34
(UTC+00:00)
Language:

Cosmos 1626 - Orbit

View from above orbital plane
View from above orbital plane
View from above satellite
View from above satellite

Ground track
Ground track

The orbit data is extracted from the following two-line orbital elements,

1 15494U 85009A   21131.86155450  .00000890  00000-0  34448-4 0  9991
2 15494  82.4788 261.6891 0003839  97.4600 262.7074 15.24854092985419
Epoch (UTC): 11 May 2021 20:40:38
Eccentricity: 0.0003839
inclination: 82.4788°
perigee height: 488 km
apogee height: 494 km
right ascension of ascending node: 261.6891°
argument of perigee: 97.4600°
revolutions per day: 15.24854092
mean anomaly at epoch: 262.7074°
orbit number at epoch: 98541

The dashed part of the orbit path shows where the satellite is in the earth's shadow,  

DLR